VIASAT-1

Last updated on Thu Oct 30 2025 00:02:48 GMT+0000 (Coordinated Universal Time)

1 37843U 11059A 25302.48776183 -.00000014 00000+0 00000+0 0 9991 2 37843 0.0182 250.5924 0001855 317.9991 249.9603 1.00270420 45012
UTC large
Height (km)
Speed (km/s)
/
Latitude / Longitude
Inclination (degrees)
Orbital Period (minutes)
Azimuth
Elevation
Range (km)
Doppler Factor

Next 0 passes for location: London (51.5072 / 0.1276)

Sorry there are no passes over London.